User: anonymous   Login
Location: Newark
(45.8667°N, 9.7333°E)
Time: 04:34:44
(UTC+00:00)
Language:

Explorer 11/Cluster Stage 4 - Orbit

View from above orbital plane
View from above orbital plane
View from above satellite
View from above satellite

Ground track
Ground track

The orbit data is extracted from the following two-line orbital elements,

1   107U 61013A   20023.85776350  .00000281  00000-0  15028-4 0  9998
2   107  28.7893 283.6958 0547089 207.1812 149.9092 14.08895058945226
Epoch (UTC): 23 January 2020 20:35:10
Eccentricity: 0.0547089
inclination: 28.7893°
perigee height: 467 km
apogee height: 1259 km
right ascension of ascending node: 283.6958°
argument of perigee: 207.1812°
revolutions per day: 14.08895058
mean anomaly at epoch: 149.9092°
orbit number at epoch: 94522

The dashed part of the orbit path shows where the satellite is in the earth's shadow,  

DLR